Stations météo

réclame
Mon MeteoGroup
Cap Corse, France (7785): Température de l'air & dewpoint: 14.11.2017 12:00:00 - 20.11.2017 12:00:00 (CET)Cap Corse, France (7785): Vitesse du vent & gusts: 14.11.2017 12:00:00 - 20.11.2017 12:00:00 (CET)Cap Corse, France (7785): Direction du vent: 14.11.2017 12:00:00 - 20.11.2017 12:00:00 (CET)Cap Corse, France (7785): reduced air pressure: 14.11.2017 12:00:00 - 20.11.2017 12:00:00 (CET)Cap Corse, France (7785): visibility: 14.11.2017 12:00:00 - 20.11.2017 12:00:00 (CET)Cap Corse, France (7785): Quantités de précipitations: 14.11.2017 12:00:00 - 20.11.2017 12:00:00 (CET)
Date & Time tt [°C] td [°C] ff [km/h] ff [knt] fx [km/h] fx [knt] dd ppp [hPa] vv [km] rr [mm]
20.11.2017 12:00:00 17,1 9,0 8 4 14 8 WNW 1020,1 - 0,0
20.11.2017 11:00:00 16,2 8,7 5 3 27 14 W 1020,5 - 0,0
20.11.2017 10:00:00 16,0 8,7 13 7 34 19 SSE 1020,2 - 0,0
20.11.2017 09:00:00 14,4 9,0 21 12 34 18 SE 1019,7 - 0,0
20.11.2017 08:00:00 12,9 9,0 25 14 38 20 SE 1019,2 - 0,0
20.11.2017 07:00:00 12,4 8,7 22 12 31 17 SE 1019,0 12 0,0
20.11.2017 06:00:00 12,1 8,8 19 10 25 13 ESE 1018,8 - 0,0
20.11.2017 05:00:00 11,8 8,8 14 8 22 12 ESE 1018,6 - 0,0
20.11.2017 04:00:00 11,8 8,8 16 9 24 13 E 1018,2 12 0,0
20.11.2017 03:00:00 11,3 8,3 16 9 19 10 ESE 1018,0 - 0,0
20.11.2017 02:00:00 11,1 7,8 11 6 18 10 ESE 1017,7 - 0,0
20.11.2017 01:00:00 11,5 8,0 11 6 23 12 ESE 1017,5 - 0,0
20.11.2017 00:00:00 11,6 9,0 16 9 23 12 ESE 1017,1 - 0,0
19.11.2017 23:00:00 11,5 9,1 8 5 10 6 E 1016,8 - 0,0
19.11.2017 22:00:00 11,4 8,6 0 0 14 7 N 1016,5 - 0,0
19.11.2017 21:00:00 11,6 8,6 6 4 13 7 WSW 1015,8 - 0,0
19.11.2017 20:00:00 11,6 8,3 6 4 9 5 W 1015,5 - 0,0
19.11.2017 19:00:00 11,8 8,5 8 5 14 8 W 1015,0 12 0,0
19.11.2017 18:00:00 11,9 8,6 7 4 12 6 W 1014,3 - 0,0
19.11.2017 17:00:00 12,7 8,8 6 3 16 9 W 1013,8 - 0,0
19.11.2017 16:00:00 14,6 10,0 15 8 26 14 W 1013,2 15 0,0
19.11.2017 15:00:00 15,6 9,5 8 4 15 8 W 1013,1 - 0,0
19.11.2017 14:00:00 16,5 8,5 7 4 22 12 W 1013,3 - 0,0
19.11.2017 13:00:00 16,3 8,5 12 6 29 16 W 1013,5 30 0,0
19.11.2017 12:00:00 16,0 8,7 13 7 30 16 WSW 1014,3 - 0,0
19.11.2017 11:00:00 16,1 9,0 11 6 36 20 W 1014,5 - 0,0
19.11.2017 10:00:00 15,6 9,9 21 11 33 18 WSW 1014,5 30 0,0
19.11.2017 09:00:00 13,8 9,2 17 9 39 21 WSW 1014,9 - 0,0
19.11.2017 08:00:00 12,4 8,7 18 10 30 16 SW 1015,1 - 0,0
19.11.2017 07:00:00 12,6 8,5 17 9 41 22 WSW 1015,0 12 0,0
19.11.2017 06:00:00 12,7 9,0 26 14 45 25 WSW 1014,4 - 0,0
19.11.2017 05:00:00 12,6 8,9 23 13 38 20 SW 1015,1 - 0,0
19.11.2017 04:00:00 11,9 8,2 24 13 31 17 SW 1015,8 - 0,0
19.11.2017 03:00:00 12,1 8,0 22 12 31 17 WSW 1016,2 - 0,0
19.11.2017 02:00:00 12,1 7,6 23 12 34 18 WSW 1016,2 - 0,0
19.11.2017 01:00:00 11,4 7,1 22 12 28 15 WSW 1016,6 - 0,0
19.11.2017 00:00:00 10,9 6,8 9 5 15 8 SW 1017,6 - 0,0
18.11.2017 23:00:00 10,8 6,3 6 4 13 7 W 1017,9 - 0,0
18.11.2017 22:00:00 10,6 6,7 7 4 13 7 SE 1017,7 - 0,0
18.11.2017 21:00:00 11,1 6,6 12 7 21 11 ESE 1017,7 - 0,0
18.11.2017 20:00:00 11,5 6,8 16 8 24 13 ESE 1017,3 - 0,0
18.11.2017 19:00:00 12,1 6,4 16 9 27 15 SE 1017,5 20 0,0
18.11.2017 18:00:00 12,0 6,3 18 10 27 14 SE 1017,0 - 0,0
18.11.2017 17:00:00 12,2 6,5 16 8 24 13 SE 1016,8 - 0,0
18.11.2017 16:00:00 13,2 6,5 13 7 25 13 SE 1016,6 20 0,0
18.11.2017 15:00:00 15,1 7,1 11 6 26 14 E 1016,3 - 0,0
18.11.2017 14:00:00 15,4 6,9 16 9 32 17 E 1016,6 - 0,0
18.11.2017 13:00:00 15,5 7,3 19 11 35 19 E 1016,8 30 0,0
18.11.2017 12:00:00 15,8 7,5 18 10 36 20 E 1017,1 - 0,0
18.11.2017 11:00:00 15,5 6,8 21 11 34 18 E 1017,4 - 0,0
18.11.2017 10:00:00 15,0 6,8 15 8 32 18 ESE 1017,3 20 0,0
18.11.2017 09:00:00 14,0 6,8 20 11 34 19 ESE 1017,2 - 0,0
18.11.2017 08:00:00 12,3 7,0 23 13 36 19 SE 1016,9 - 0,0
18.11.2017 07:00:00 11,9 6,2 22 12 38 21 ESE 1016,3 12 0,0
18.11.2017 06:00:00 12,2 6,9 28 15 40 22 ESE 1015,8 - 0,0
18.11.2017 05:00:00 12,0 6,7 23 13 36 20 ESE 1016,1 - 0,0
18.11.2017 04:00:00 12,1 6,8 23 12 41 22 ESE 1016,4 12 0,0
18.11.2017 03:00:00 12,3 7,0 26 14 38 20 ESE 1016,3 - 0,0
18.11.2017 02:00:00 12,4 6,7 22 12 35 19 ESE 1016,6 - 0,0
18.11.2017 01:00:00 12,6 7,5 19 11 29 16 ESE 1016,8 - 0,0
18.11.2017 00:00:00 12,1 6,8 12 7 18 10 SE 1016,9 - 0,0
17.11.2017 23:00:00 12,1 6,4 12 6 15 8 ESE 1016,8 - 0,0
17.11.2017 22:00:00 12,2 7,5 14 7 16 9 ESE 1016,8 - 0,0
17.11.2017 21:00:00 12,2 7,1 11 6 19 10 E 1016,5 - 0,0
17.11.2017 20:00:00 12,6 6,8 14 7 19 10 ESE 1016,4 - 0,0
17.11.2017 19:00:00 12,5 4,7 14 7 23 12 ESE 1016,1 18 0,0
17.11.2017 18:00:00 12,5 6,1 18 10 26 14 SE 1015,8 - 0,0
17.11.2017 17:00:00 12,8 5,5 16 8 26 14 ESE 1015,6 - 0,0
17.11.2017 16:00:00 14,2 6,3 18 10 32 17 E 1015,3 18 0,0
17.11.2017 15:00:00 15,0 6,3 21 11 30 16 E 1015,2 - 0,0
17.11.2017 14:00:00 15,6 6,6 18 10 27 15 E 1015,7 - 0,0
17.11.2017 13:00:00 15,8 7,5 19 10 35 19 E 1016,3 20 0,0
17.11.2017 12:00:00 15,9 7,4 24 13 45 25 E 1016,5 - 0,0
17.11.2017 11:00:00 15,5 7,3 25 13 35 19 E 1016,9 - 0,0
17.11.2017 10:00:00 15,6 7,4 22 12 34 19 E 1017,1 - 0,0
17.11.2017 09:00:00 14,6 7,6 18 10 31 17 E 1017,0 - 0,0
17.11.2017 08:00:00 13,2 7,2 19 10 31 17 ESE 1016,5 - 0,0
17.11.2017 07:00:00 12,4 6,9 18 10 26 14 E 1016,4 - 0,0
17.11.2017 06:00:00 11,9 6,8 13 7 21 11 E 1016,4 - 0,0
17.11.2017 05:00:00 12,2 7,3 14 8 22 12 ESE 1016,0 - 0,0
17.11.2017 04:00:00 12,3 7,4 14 7 19 11 ESE 1016,3 12 0,0
17.11.2017 03:00:00 12,8 7,9 8 4 22 12 SE 1016,4 - 0,0
17.11.2017 02:00:00 13,4 8,2 17 9 30 16 SW 1016,6 - 0,0
17.11.2017 01:00:00 13,8 8,2 15 8 31 17 SW 1016,8 - 0,0
17.11.2017 00:00:00 13,9 8,3 22 12 36 20 SW 1017,2 - 0,0
16.11.2017 23:00:00 13,8 8,4 24 13 44 24 WSW 1017,2 - 0,0
16.11.2017 22:00:00 14,2 7,9 30 16 41 22 SW 1017,0 - 0,0
16.11.2017 21:00:00 13,0 7,9 24 13 36 19 WSW 1017,1 - 0,0
16.11.2017 20:00:00 13,0 8,1 25 14 31 17 WSW 1016,9 - 0,0
16.11.2017 19:00:00 12,7 7,2 20 11 29 15 WSW 1016,9 - 0,0
16.11.2017 18:00:00 12,8 7,2 15 8 22 12 W 1017,0 - 0,0
16.11.2017 17:00:00 13,2 7,0 15 8 20 11 W 1016,8 - 0,0
16.11.2017 16:00:00 15,9 7,6 9 5 16 9 W 1016,7 30 0,0
16.11.2017 15:00:00 16,0 7,5 8 5 15 8 NNW 1016,8 - 0,0
16.11.2017 14:00:00 16,0 7,7 9 5 15 8 NNW 1017,0 - 0,0
16.11.2017 13:00:00 16,2 7,9 9 5 13 7 N 1017,7 30 0,0
16.11.2017 12:00:00 16,5 8,2 4 2 15 8 NNW 1018,2 - 0,0
16.11.2017 11:00:00 15,9 8,1 9 5 17 9 ENE 1018,9 - 0,0
16.11.2017 10:00:00 15,4 7,9 11 6 26 14 E 1018,3 30 0,0
16.11.2017 09:00:00 14,6 7,2 13 7 23 12 E 1018,5 - 0,0
16.11.2017 08:00:00 12,7 6,5 16 9 35 19 E 1018,5 - 0,0
16.11.2017 07:00:00 13,3 5,9 25 13 50 27 E 1018,1 12 0,0
16.11.2017 06:00:00 13,4 6,0 34 18 53 29 E 1017,5 - 0,0
16.11.2017 05:00:00 13,4 6,3 36 20 57 31 E 1017,5 - 0,0
16.11.2017 04:00:00 13,0 5,9 40 22 60 32 E 1017,5 12 0,0
16.11.2017 03:00:00 13,0 5,9 40 21 62 34 E 1017,7 - 0,0
16.11.2017 02:00:00 13,1 6,7 39 21 54 29 E 1017,9 - 0,0
16.11.2017 01:00:00 12,8 7,7 36 19 50 27 E 1017,8 - 0,2
16.11.2017 00:00:00 12,6 8,9 35 19 61 33 E 1018,1 - 0,0
15.11.2017 23:00:00 11,9 8,6 48 26 66 35 E 1018,0 - 0,4
15.11.2017 22:00:00 12,0 8,1 44 24 58 31 E 1018,2 - 0,2
15.11.2017 21:00:00 12,4 7,5 32 17 53 28 E 1017,9 - 0,0
15.11.2017 20:00:00 12,7 8,2 40 22 56 30 E 1017,5 - 0,0
15.11.2017 19:00:00 13,2 6,3 35 19 64 35 E 1017,2 - 0,0
15.11.2017 18:00:00 13,8 6,2 37 20 64 35 E 1016,7 - 0,0
15.11.2017 17:00:00 14,2 6,3 32 18 47 26 E 1016,4 - 0,0
15.11.2017 16:00:00 14,0 5,6 27 15 - - E 1016,3 20 0,0
15.11.2017 15:00:00 14,3 5,6 28 15 45 24 E 1015,8 - 0,0
15.11.2017 14:00:00 14,2 6,3 29 16 51 27 E 1015,8 - 0,0
15.11.2017 13:00:00 14,3 5,9 34 18 51 28 E 1016,0 30 0,0
15.11.2017 12:00:00 14,3 5,1 27 15 57 31 E 1016,2 - 0,0
15.11.2017 11:00:00 14,9 5,7 24 13 40 21 E 1016,5 - 0,0
15.11.2017 10:00:00 13,7 4,6 23 12 - - E 1016,3 30 0,0
15.11.2017 09:00:00 13,2 3,8 26 14 49 26 E 1015,5 - 0,0
15.11.2017 08:00:00 12,4 4,4 18 10 36 20 E 1015,1 - 0,0
15.11.2017 07:00:00 12,4 3,1 22 12 29 16 ESE 1014,6 12 0,0
15.11.2017 06:00:00 13,2 4,6 18 10 33 18 ENE 1014,0 - 0,0
15.11.2017 05:00:00 12,1 3,1 16 9 36 19 E 1013,9 - 0,0
15.11.2017 04:00:00 11,7 2,4 22 12 37 20 ESE 1014,2 12 0,0
15.11.2017 03:00:00 11,9 2,6 22 12 30 16 ESE 1014,2 - 0,0
15.11.2017 02:00:00 11,4 2,7 17 9 27 15 ESE 1014,4 - 0,0
15.11.2017 01:00:00 11,8 3,0 21 12 32 18 ESE 1014,7 - 0,0
15.11.2017 00:00:00 11,8 2,5 20 11 31 17 E 1014,8 - 0,0
14.11.2017 23:00:00 11,7 2,4 22 12 32 17 E 1014,9 - 0,0
14.11.2017 22:00:00 12,8 2,9 22 12 39 21 E 1014,5 - 0,0
14.11.2017 21:00:00 12,7 3,1 22 12 35 19 E 1014,8 - 0,0
14.11.2017 20:00:00 12,8 1,8 24 13 44 24 E 1014,5 - 0,0
14.11.2017 19:00:00 12,8 2,9 30 16 45 24 E 1014,8 - 0,0
14.11.2017 18:00:00 12,4 3,6 32 18 49 26 E 1014,2 - 0,0
14.11.2017 17:00:00 12,6 2,7 23 13 46 25 E 1013,7 - 0,0
14.11.2017 16:00:00 12,8 2,6 26 14 49 26 E 1013,4 15 0,0
14.11.2017 15:00:00 13,2 2,1 31 17 56 31 E 1013,0 - 0,0
14.11.2017 14:00:00 13,5 2,7 35 19 62 34 E 1012,7 - 0,0
14.11.2017 13:00:00 13,8 3,0 46 25 67 36 E 1012,7 15 0,0
14.11.2017 12:00:00 12,9 3,0 47 26 81 44 ENE 1012,9 - 0,0

tt = Température de l'air
td = dewpoint
ff = Vitesse du vent
fx = gusts
dd = Direction du vent
ppp = reduced air pressure
vv = visibility
rr = Quantités de précipitations

stations d'obs. à proximité